Terug naar catalogus

STARLINK-4590

ActiefCommunicatieVLEO
NORAD 53606·PAYLOAD·🇺🇸 United States

Gelanceerd Aug 28, 2022 vanaf Cape Canaveral Space Force Station

Loading…

Volgende Passages (komende 24 uur)

TLE

VersSource: CelesTrak SupGP

Epoch: Sep 15, 2026, 02:38 UTC

1 53606C 22104U   26258.11020833 -.00012145  00000+0 -35889-3 0  2588
2 53606  53.1585  92.6234 0001191  81.8487 190.6421 15.34390505    12

Volg STARLINK-4590 in realtime met AllMySat

Download on the App Store